Regional Weather Roundup
Issued by NWS

Home | Current Version | Previous Version | Text Only | Print | Product List | Glossary On
Versions: 1 2 3 4 5 6 7 8 9 10 11 12 13 14 15 16 17 18 19 20 21 22 23 24 25 26 27 28 29 30 31 32 33 34 35 36 37 38 39 40 41 42 43 44 45 46 47 48 49 50
000
ASUS43 KFSD 202102
RWRSD

WEATHER ROUNDUP FOR SOUTH DAKOTA
NATIONAL WEATHER SERVICE SIOUX FALLS SD
300 PM CST FRI JAN 20 2017

NOTE: "FAIR" INDICATES FEW OR NO CLOUDS BELOW 12,000 FEET WITH NO
SIGNIFICANT WEATHER AND/OR OBSTRUCTIONS TO VISIBILITY.


SDZ001>005-009-010-012>017-202200-
NORTHWEST AND NORTH CENTRAL SOUTH DAKOTA

CITY           SKY/WX    TMP DP  RH WIND       PRES   REMARKS
BUFFALO          N/A     37  31  78 NW18      29.25R
FAITH            N/A     25  23  92 N7        29.28  WCI  17
MOBRIDGE       CLOUDY    29  26  89 N3        29.28S FOG
$$

SDZ012>016-024>037-041>051-057-063-072>074-202200-
SOUTHWEST AND SOUTH CENTRAL SOUTH DAKOTA

CITY           SKY/WX    TMP DP  RH WIND       PRES   REMARKS
RAPID CTY ARPT CLOUDY    41  31  67 NW25G31   29.30R
PIERRE         SUNNY     20  17  88 SW6       29.31S WCI  12
CUSTER         CLOUDY    40  24  53 CALM      29.29F
ELLSWORTH AFB  MOSUNNY   39  32  75 N18       29.29S
PHILIP         CLOUDY    36  30  79 W7        29.30R
PINE RIDGE     SUNNY     36  30  79 W9        29.33S
SPEARFISH      CLOUDY    37  32  81 W9G18     29.35S
WINNER         FAIR      47  30  51 SW13      29.32S
$$

SDZ004>011-016>023-039-040-202200-
NORTHEAST SOUTH DAKOTA

CITY           SKY/WX    TMP DP  RH WIND       PRES   REMARKS
ABERDEEN       CLOUDY    34  32  92 SE8       29.35S FOG     WCI  27
WATERTOWN      CLOUDY    35  35 100 S13       29.37S FOG     WCI  26
BROOKINGS      FOG       37  36  96 S15       29.39R VSB 3/4
SISSETON         N/A     35  35 100 SE9       29.40S WCI  28
$$

SDZ017-020-022-023-036>040-048>070-202200-
SOUTHEAST SOUTH DAKOTA

CITY           SKY/WX    TMP DP  RH WIND       PRES   REMARKS
SIOUX FALLS    CLOUDY    40  40 100 SE13      29.42S FOG
HURON          SUNNY     43  36  76 S13       29.34R
CHAMBERLAIN    SUNNY     44  32  61 S6        29.32S
MITCHELL       SUNNY     48  37  65 S18G24    29.35F
YANKTON        CLOUDY    45  39  81 SE14      29.39F
$$

ABBREVIATIONS USED IN REMARKS
   TC - TEMPERATURE IN CELSIUS
  WCI - WIND CHILL INDEX
   HX - HEAT INDEX
  VSB - VISIBILITY





USA.gov is the U.S. government's official web portal to all federal, state and local government web resources and services.